DW6794 Weather Reports


Display with metric or nautical units.
time (UTC)temp
F
wind
direction
speed
MPH
gust
MPH
rain 1hr
in
rain 24hr
in
rain mn
in
humidity
%
barometer
mb
20161001161339 68 257 2.0 9.0 0.00 0.00 0.00 69 1016.0
20161001155339 67 315 2.0 6.0 0.00 0.00 0.00 72 1016.2
20161001153339 66 11 1.0 3.0 0.00 0.00 0.00 74 1016.2
20161001150339 64 38 2.0 3.0 0.00 0.00 0.00 76 1016.2
20161001131340 53 138 1.0 3.0 0.00 0.00 0.00 86 1016.4
20161001121340 46 243 0.0 0.0 0.00 0.00 0.00 84 1016.5
20161001110340 45 243 0.0 0.0 0.00 0.00 0.00 83 1015.6
20161001104340 45 243 0.0 0.0 0.00 0.00 0.00 83 1015.5
20161001103340 45 243 0.0 0.0 0.00 0.00 0.00 83 1015.5
20161001080341 48 243 0.0 0.0 0.00 0.00 0.00 81 1014.7
20161001072341 49 243 0.0 0.0 0.00 0.00 0.00 81 1014.9
20161001070341 50 243 0.0 0.0 0.00 0.00 0.00 80 1015.0
20161001034342 55 244 0.0 0.0 0.00 0.00 0.00 75 1014.7
20161001024342 55 244 0.0 0.0 0.00 0.00 0.00 74 1014.1
20161001022342 55 244 0.0 0.0 0.00 0.00 0.00 74 1014.1
20161001020342 56 244 0.0 0.0 0.00 0.00 0.00 71 1014.1
20161001014341 57 244 0.0 0.0 0.00 0.00 0.00 70 1014.1
20161001013341 58 244 0.0 0.0 0.00 0.00 0.00 70 1014.1
20161001005342 61 244 0.0 0.0 0.00 0.00 0.00 68 1014.0
20161001002342 62 244 0.0 0.0 0.00 0.00 0.00 67 1014.0
20161001001342 63 244 0.0 0.0 0.00 0.00 0.00 68 1013.8
20160930233342 64 244 0.0 0.0 0.00 0.00 0.00 65 1013.4
20160930232342 64 244 0.0 0.0 0.00 0.00 0.00 65 1013.4
20160930231342 65 244 0.0 0.0 0.00 0.00 0.00 64 1013.3
20160930224342 66 244 0.0 3.0 0.00 0.00 0.00 62 1012.8
20160930220343 69 355 0.0 5.0 0.00 0.00 0.00 62 1012.3
20160930202342 70 230 4.0 7.0 0.00 0.02 0.00 66 1012.2
20160930195343 69 28 2.0 5.0 0.00 0.02 0.00 68 1012.2
20160930194343 69 28 0.0 3.0 0.00 0.02 0.00 67 1012.3
20160930193343 69 28 2.0 8.0 0.00 0.02 0.00 69 1012.3
20160930192343 68 48 1.0 5.0 0.00 0.02 0.00 69 1012.2
20160930185343 66 320 2.0 6.0 0.00 0.02 0.00 71 1012.5
20160930173343 63 245 7.0 9.0 0.00 0.02 0.00 75 1013.5